Pilanesberg International Airport

Jump to: basic info | weather | frequencies | runways | comments

Related pages: nearby airports | nearby navaids | notams | map

Basic information (top)

Codes: NTY FAPN
Location: lon -25.333799, lat 27.173401, elev 3,412 ft / 1,040 m msl
Status: small_airport
Scheduled airline service: no
Links: Wikipedia Mobile

Weather (top)

Current conditions (rec'd 2014/11/23 03:00Z):

FAPN 230300Z AUTO 18003KT //// // ////// 18/14 Q1019

Airport forecast (rec'd 2014/06/04 10:20Z):

TAF FAPN 040900Z 0410/0418 33008KT CAVOK TX26/0412ZTN06/0418Z

Frequencies (top)

Verify before use: may be inaccurate or out of date.

TWR: 118.4 MHz (TWR)

Runways (top)

05/23: 9,022 x 98 ft (2,750 x 30 m) — paved — lighted

Latest comments (top)

For all First Time Night Flyers!!!: Pilanesberg Int., amazing airport ... [read]

Flighs: Kindly request if you do have flights ... [read]

More... (top)

See also NOTAMs and nearby airports and navaids, or visit the Pilanesberg International Airport page at the main OurAirports website..